Lapse_Rate
6.5 6.5 6.6 6.8 7.0 7.0 7.0 7.0 7.1 7.1 7.2 7.2 7.1 7.3 7.5 7.7 7.9 7.9 8.2 8.0 7.9 7.5 6.9 6.8 7.2 7.2 7.1 7.1 7.0 7.3 7.2 7.0 7.2 7.2 7.2 7.1 7.1 7.1 7.1 7.1 7.0 7.0 6.8 6.8 6.8 6.8 6.9 6.8 6.8
6.7 6.6 6.5 6.7 7.0 7.0 7.0 7.1 7.1 7.0 7.1 7.1 7.3 7.3 7.3 7.4 7.5 8.0 8.0 8.1 7.7 7.4 6.7 6.7 7.0 7.1 7.3 7.2 7.3 7.4 7.2 7.2 7.2 7.1 7.0 7.1 7.1 7.0 7.1 7.1 7.0 7.0 7.0 6.9 6.9 6.8 6.8 6.8 6.8
6.7 6.5 6.4 6.6 6.9 6.9 7.0 6.9 7.0 6.8 6.7 7.0 7.2 7.1 7.2 7.5 7.5 7.6 7.8 7.8 7.4 7.1 7.0 6.8 6.9 7.1 7.2 7.2 7.4 7.4 7.2 7.2 7.2 7.0 7.0 7.1 7.0 7.1 7.0 7.1 7.1 7.1 7.0 6.8 6.7 6.7 6.7 6.7 6.7
6.8 6.5 6.4 6.5 6.9 6.8 7.0 7.1 7.1 7.1 7.1 7.1 7.1 7.0 7.2 7.5 7.5 7.6 7.9 7.5 7.2 7.1 6.8 6.7 6.9 6.8 6.9 7.3 7.5 7.4 7.4 7.3 7.1 7.1 7.1 7.1 7.1 7.1 7.1 7.2 7.1 7.1 7.1 7.0 6.8 6.7 6.6 6.4 6.5
6.7 6.6 6.4 6.5 6.9 6.7 6.9 7.1 7.1 7.2 7.4 7.2 7.0 7.4 7.6 7.4 7.4 7.6 7.6 7.3 7.1 7.1 7.0 7.0 6.9 7.0 7.1 7.4 7.5 7.5 7.4 7.4 7.3 7.3 7.2 7.1 7.1 7.1 7.2 7.2 7.2 7.2 7.2 7.1 7.0 6.9 6.8 6.5 6.4
6.8 6.6 6.4 6.5 6.8 6.7 6.7 7.0 7.1 7.1 7.2 7.4 7.2 7.5 7.7 7.7 7.5 7.4 7.3 7.2 7.2 7.2 7.2 7.2 7.1 7.1 7.4 7.7 7.6 7.5 7.4 7.4 7.4 7.4 7.3 7.3 7.2 7.2 7.2 7.2 7.2 7.2 7.2 7.1 7.0 6.9 6.9 6.8 6.8
6.8 6.6 6.5 6.4 6.8 6.7 6.6 7.0 7.0 7.1 7.1 7.3 7.4 7.6 7.9 7.9 7.7 7.5 7.2 7.3 7.5 7.5 7.4 7.2 7.3 7.5 7.7 7.7 7.5 7.5 7.4 7.5 7.4 7.3 7.3 7.3 7.2 7.1 7.1 7.1 7.1 7.0 7.0 7.0 6.9 6.8 6.8 6.8 6.8
6.6 6.6 6.5 6.4 6.7 6.8 6.6 6.6 6.7 6.8 7.0 7.2 7.2 7.5 8.0 7.9 7.7 7.6 7.4 7.4 7.4 7.5 7.5 7.5 7.6 7.6 7.6 7.4 7.3 7.2 7.3 7.3 7.2 7.1 7.1 7.0 7.0 7.1 7.0 7.0 7.0 6.9 6.8 6.8 6.7 6.7 6.6 6.6 6.6
6.4 6.4 6.7 6.3 6.5 6.6 6.6 6.5 6.5 6.9 7.0 7.1 7.3 7.5 7.7 7.7 7.7 7.6 7.6 7.5 7.5 7.3 7.3 7.2 7.2 7.2 7.2 7.1 7.1 7.1 7.1 7.2 7.1 7.1 7.1 7.1 7.1 7.1 7.1 7.0 6.9 6.9 6.8 6.7 6.7 6.6 6.6 6.6 6.5
6.0 6.2 6.5 6.4 6.1 6.3 6.5 6.6 6.8 7.0 7.1 7.1 7.3 7.5 7.8 7.9 7.7 7.7 7.8 7.7 7.2 6.9 6.8 6.9 6.8 6.8 6.8 6.8 6.8 6.9 6.9 6.9 7.0 7.1 7.1 7.0 6.9 6.8 6.7 6.6 6.5 6.6 6.6 6.5 6.4 6.3 6.3 6.3 6.3
6.1 6.3 6.4 6.3 6.1 6.1 6.3 6.5 6.8 6.9 7.0 7.5 7.7 7.6 7.7 7.7 7.9 7.6 7.5 7.5 7.0 6.7 6.6 6.7 6.7 6.7 6.7 6.7 6.8 6.8 6.9 6.9 6.9 6.8 6.7 6.6 6.5 6.5 6.4 6.3 6.2 6.2 6.2 6.2 6.3 6.3 6.3 6.3 6.4
6.0 6.4 6.2 6.3 6.1 6.1 6.2 6.4 6.7 6.9 7.1 7.3 7.4 7.4 7.4 7.8 7.9 7.6 7.3 7.0 6.9 6.8 6.7 6.7 6.7 6.6 6.5 6.6 6.7 6.7 6.7 6.6 6.5 6.5 6.5 6.5 6.4 6.4 6.4 6.3 6.2 6.1 6.1 6.0 6.0 6.0 6.0 6.0 6.1
6.0 6.4 6.3 6.1 6.3 6.3 6.4 6.5 6.7 7.1 7.2 7.5 7.5 7.5 7.6 7.7 7.5 7.4 7.2 7.1 6.9 6.8 6.8 6.6 6.4 6.3 6.4 6.4 6.6 6.6 6.5 6.5 6.4 6.4 6.5 6.5 6.4 6.3 6.3 6.3 6.2 6.2 6.1 6.0 6.0 6.1 6.1 6.1 6.1
6.1 6.0 6.3 6.1 6.3 6.3 6.4 6.5 6.8 7.1 7.2 7.3 7.4 7.5 7.6 7.5 7.3 7.2 7.1 7.0 6.9 6.8 6.6 6.4 6.3 6.3 6.4 6.4 6.3 6.4 6.3 6.3 6.3 6.4 6.4 6.4 6.4 6.3 6.2 6.2 6.1 6.1 6.0 6.1 6.1 6.2 6.2 6.2 6.2
6.3 6.0 6.1 6.3 6.3 6.4 6.5 6.5 6.8 7.2 7.2 7.3 7.3 7.5 7.6 7.4 7.3 6.9 6.9 7.0 6.9 6.9 6.6 6.5 6.4 6.5 6.4 6.4 6.4 6.3 6.3 6.3 6.3 6.2 6.2 6.3 6.3 6.3 6.2 6.1 6.1 6.2 6.2 6.2 6.2 6.3 6.3 6.3 6.3
6.0 5.8 6.2 6.7 6.5 6.3 6.5 6.7 7.0 7.1 7.1 7.3 7.4 7.5 7.4 7.6 7.2 7.0 7.1 7.1 7.1 7.1 6.8 6.6 6.5 6.4 6.2 6.2 6.3 6.3 6.3 6.2 6.2 6.2 6.3 6.3 6.2 6.2 6.2 6.1 6.1 6.0 6.0 6.0 6.1 6.1 6.1 6.1 6.3
6.1 5.7 6.0 6.5 6.7 6.6 6.6 6.8 7.1 6.9 7.0 7.1 7.3 7.4 7.3 7.2 7.0 7.1 7.1 7.2 7.2 7.2 7.0 6.7 6.5 6.3 6.2 6.3 6.3 6.2 6.2 6.1 6.1 6.3 6.4 6.4 6.1 6.1 6.1 6.0 5.9 5.8 5.7 5.8 5.9 6.0 6.1 6.2 6.2
6.1 5.8 6.0 6.5 7.2 6.8 6.6 6.6 6.7 6.7 6.8 7.1 7.2 7.3 7.3 7.1 7.1 7.0 7.0 7.1 7.2 7.2 7.0 6.7 6.6 6.4 6.4 6.3 6.2 6.1 6.1 6.2 6.4 6.5 6.4 6.3 6.1 6.1 6.1 5.9 5.8 5.4 5.1 5.1 5.4 5.7 5.6 5.5 5.6
6.1 5.9 6.1 6.8 7.0 6.6 6.6 6.4 6.4 6.4 6.5 6.7 7.0 7.4 7.5 7.3 7.1 7.0 7.0 7.2 7.3 7.1 6.9 6.6 6.5 6.4 6.3 6.1 6.1 6.1 6.2 6.4 6.4 6.3 6.2 6.2 6.1 6.0 5.7 5.5 5.2 5.0 4.9 5.0 5.4 5.9 6.0 5.7 5.6
6.0 5.9 5.7 6.4 6.8 6.3 6.1 5.9 6.3 6.3 6.5 6.8 7.0 7.2 7.3 7.4 7.2 7.3 7.5 7.5 7.4 7.2 7.0 6.7 6.4 6.2 6.1 6.1 6.1 6.2 6.2 6.2 6.3 6.4 6.3 6.0 5.9 5.7 5.5 5.3 5.2 5.3 5.4 5.3 5.4 5.4 5.6 5.5 5.5
6.0 5.8 6.1 6.0 6.7 6.4 6.2 6.0 6.3 6.5 6.6 6.7 6.9 7.0 7.1 7.5 7.6 7.7 7.9 7.8 7.5 7.3 6.8 6.5 6.2 6.1 6.0 6.0 6.2 6.1 6.1 6.1 6.3 6.4 6.3 6.2 6.1 5.9 5.7 5.6 5.5 5.5 5.6 5.5 5.5 5.4 5.5 5.9 6.1
5.9 6.4 6.4 6.0 5.8 5.9 6.2 5.8 6.2 6.5 6.7 6.7 7.1 7.3 7.3 7.2 7.4 7.6 7.7 7.6 7.4 6.9 6.7 6.3 6.2 6.0 5.9 6.0 5.9 6.0 6.1 6.3 6.6 6.7 6.6 6.4 6.2 5.9 5.7 5.7 5.7 5.7 5.7 5.7 5.7 5.7 5.9 6.4 6.2
5.7 6.5 6.4 6.0 5.8 5.8 5.5 5.4 5.2 5.8 6.1 6.7 7.1 7.5 7.7 7.6 7.6 7.8 8.0 7.6 6.8 6.7 6.6 6.3 6.1 5.8 5.8 5.9 5.8 5.9 6.3 6.8 7.0 6.8 6.7 6.6 6.1 5.9 5.9 6.0 5.9 6.0 5.9 6.1 6.1 6.3 6.5 6.2 6.3
6.1 5.7 6.0 5.8 5.7 5.4 5.5 5.7 5.5 5.7 6.7 7.3 7.4 7.6 7.9 7.7 7.7 7.8 7.7 7.1 6.8 6.6 6.5 6.1 6.0 5.8 5.9 6.1 6.0 6.4 7.0 7.1 7.1 7.0 6.7 6.3 6.0 5.9 6.1 6.2 6.3 6.3 6.5 6.6 6.8 6.6 6.4 6.3 6.2
5.8 5.6 5.4 5.3 5.6 5.3 6.2 5.6 5.8 6.1 6.3 7.0 7.3 7.6 8.0 8.0 8.1 8.3 8.2 7.7 6.8 6.4 6.2 6.1 5.8 6.0 6.2 6.0 6.4 7.0 7.2 7.1 7.0 6.8 6.6 6.3 6.1 6.1 6.3 6.4 6.6 6.9 7.1 7.1 7.1 6.8 6.5 6.3 6.1
6.1 6.0 5.8 6.2 6.2 6.4 6.4 5.6 5.9 6.0 6.4 6.8 7.4 7.9 7.6 7.9 8.0 8.0 8.0 7.3 6.9 6.4 6.2 5.9 6.1 6.3 6.1 6.4 7.0 7.2 7.1 7.0 7.0 6.7 6.6 6.5 6.3 6.3 6.5 6.7 7.0 7.3 7.3 7.4 7.3 7.0 7.0 6.6 6.2
5.5 5.4 5.8 5.3 5.5 5.5 5.8 5.9 6.0 6.0 6.2 6.7 7.1 7.6 7.9 8.1 8.0 8.0 7.6 7.3 6.6 6.3 6.3 6.1 6.2 6.2 6.6 6.9 7.0 6.9 7.0 7.0 6.8 6.7 6.6 6.5 6.4 6.3 6.6 6.9 7.2 7.4 7.4 7.5 7.5 7.3 7.2 7.2 6.7
5.8 5.9 5.5 5.2 5.8 5.8 6.0 5.3 5.8 6.2 6.5 6.5 6.9 7.3 7.6 7.8 7.9 7.8 7.7 7.3 6.6 6.3 6.3 6.2 6.4 6.4 6.6 6.7 6.8 6.7 6.8 6.8 6.7 6.7 6.6 6.5 6.4 6.5 6.7 7.0 7.2 7.4 7.5 7.6 7.5 7.3 7.3 7.2 7.4
6.3 6.0 5.6 5.4 5.7 6.8 6.5 5.9 5.8 6.2 6.2 6.7 6.9 7.1 7.4 7.5 7.6 7.5 7.4 7.2 6.4 6.5 6.6 6.6 6.3 6.5 6.8 6.6 6.6 6.9 6.9 6.7 6.8 6.7 6.6 6.7 6.5 6.6 6.9 7.2 7.3 7.4 7.6 7.6 7.5 7.4 7.4 7.4 7.4
6.2 6.2 5.9 5.5 5.1 5.4 6.2 6.4 6.4 6.4 6.4 6.3 6.7 6.9 7.3 7.4 7.6 7.6 7.4 7.1 6.6 6.8 6.6 6.5 6.8 6.7 6.7 6.9 7.1 7.1 6.9 6.9 6.8 6.8 6.8 6.7 6.5 6.7 6.9 7.2 7.3 7.4 7.5 7.5 7.4 7.3 7.4 7.3 7.4
Wind_Speed
5 1 2 1 2 0 1 4 1 7 9 1 15 4 7 6 1 3 1 6 11 11 11 11 12 12 14 18 19 20 19 17 17 18 14 11 7 5 5 4 4 3 1 1 1 2 2 2 2
1 1 2 2 1 2 2 1 5 4 7 14 10 8 4 5 4 6 4 8 13 12 12 11 11 14 17 20 21 22 22 21 19 18 18 18 16 17 16 12 7 7 7 7 6 6 6 5 5
3 3 0 3 2 3 2 3 7 10 8 9 6 6 4 5 6 4 8 10 15 16 13 13 16 17 19 22 23 25 25 24 24 22 20 20 20 19 19 19 18 17 13 9 9 8 8 8 7
2 2 3 2 3 3 2 6 14 12 5 3 9 10 6 5 5 8 10 12 14 12 14 17 17 18 20 23 24 26 27 25 23 21 20 20 19 19 19 20 20 19 18 18 16 14 11 11 10
3 2 2 1 3 3 3 10 18 10 5 8 3 8 5 4 13 11 10 8 11 10 12 16 15 17 20 22 25 26 25 24 24 22 21 21 20 20 20 20 20 19 20 20 19 18 18 16 13
2 1 2 3 3 3 4 13 14 6 8 8 5 10 5 9 9 9 9 9 10 10 11 11 15 18 21 22 24 25 24 24 24 23 22 22 21 21 20 20 20 20 20 19 19 19 18 18 18
3 2 2 3 3 3 3 10 12 9 11 7 14 9 4 8 8 9 10 9 12 12 12 11 11 15 20 22 23 23 24 24 24 23 22 21 21 20 20 20 21 21 20 20 20 20 19 19 18
3 2 3 3 4 2 6 8 3 6 6 11 7 7 5 9 12 11 9 11 11 10 9 10 10 12 15 18 21 23 23 23 23 23 21 18 18 19 19 20 21 21 21 21 21 21 20 20 17
2 2 3 3 5 3 6 6 2 2 12 3 3 0 9 19 14 12 11 11 10 8 7 9 10 11 15 16 16 19 21 21 20 18 19 18 16 17 17 19 20 21 22 21 21 21 19 18 15
1 2 6 4 3 3 9 7 11 7 9 2 3 9 17 18 15 14 12 11 11 9 9 8 9 10 13 13 15 16 17 18 18 17 17 14 13 14 13 14 17 18 22 18 21 20 20 17 15
1 5 4 4 7 5 6 7 4 10 11 10 13 18 18 17 13 12 10 10 10 9 8 7 9 11 12 12 12 12 13 12 14 17 15 12 11 12 13 12 14 15 18 16 18 17 15 17 16
4 6 4 4 1 5 6 9 6 13 4 5 14 20 18 18 15 13 11 10 10 10 9 8 10 11 12 11 12 11 11 12 12 14 15 13 12 13 13 12 14 13 15 15 15 13 16 16 17
5 5 2 5 6 4 9 7 6 5 2 12 20 19 18 16 15 11 11 11 10 10 8 8 9 9 10 11 11 11 11 12 12 12 15 13 11 10 11 11 12 13 15 15 15 15 15 15 16
3 7 10 5 2 6 7 3 1 4 12 15 19 18 17 16 15 13 12 12 11 10 9 8 8 9 10 11 11 11 11 11 12 13 14 15 13 12 11 11 12 13 16 16 15 15 14 12 16
5 9 9 8 5 6 9 4 8 10 14 17 18 17 15 15 14 15 14 13 12 10 10 9 8 9 10 11 11 10 10 11 12 12 14 14 13 12 11 10 10 13 14 15 15 15 15 11 13
6 3 7 3 7 3 10 12 8 18 19 19 18 17 16 15 15 13 14 13 12 12 10 9 7 9 9 10 9 10 10 11 10 10 9 12 12 12 10 9 10 14 14 14 12 9 10 10 11
4 10 7 6 7 3 10 8 7 18 19 18 19 18 16 15 14 14 15 15 13 12 12 10 9 8 8 10 10 11 11 10 9 8 9 11 12 12 11 10 11 14 12 10 9 9 9 11 11
7 6 6 8 2 6 8 11 5 16 19 23 23 19 18 18 18 15 15 14 14 13 12 11 8 9 9 9 8 8 8 7 7 7 9 11 12 12 11 9 10 12 8 7 8 11 10 10 11
6 5 9 6 3 4 8 9 11 18 18 16 18 19 21 20 15 15 14 13 13 12 12 11 9 8 7 5 4 3 3 3 4 7 9 10 11 11 11 9 9 11 7 8 9 9 12 10 11
16 19 20 14 14 8 16 18 12 18 24 25 25 23 21 19 18 17 16 15 15 14 12 10 9 8 6 4 3 2 4 3 5 6 9 10 10 10 10 9 8 9 7 9 10 11 9 8 9
15 18 14 15 10 11 11 18 12 10 15 19 18 19 18 22 22 20 19 17 15 15 13 11 9 7 5 6 5 5 5 4 2 4 4 7 8 9 10 10 9 9 8 7 9 9 11 8 9
20 14 18 16 8 8 6 10 10 11 19 20 20 20 21 23 22 21 21 19 17 15 12 11 10 8 6 6 5 4 3 3 2 2 2 3 7 7 10 10 10 10 10 9 8 7 9 9 9
13 9 14 14 12 10 14 9 6 11 14 20 22 22 23 24 24 24 24 21 18 14 13 11 10 8 6 5 5 5 5 4 3 2 3 5 6 7 9 11 11 11 10 9 9 9 9 7 7
6 6 4 3 4 10 14 12 18 12 15 17 21 24 25 24 24 22 21 19 17 14 13 12 11 9 7 6 6 6 7 5 4 4 5 4 4 5 11 12 11 11 10 9 8 9 10 9 8
15 9 3 5 6 10 10 13 22 2 10 13 19 22 21 21 22 22 21 20 18 17 16 12 12 9 7 7 6 6 6 7 6 5 4 5 4 5 9 12 10 9 10 10 11 8 8 9 9
16 17 6 9 8 6 5 12 8 2 1 1 5 13 15 19 20 23 22 20 19 18 17 15 13 12 9 7 7 5 7 5 4 5 4 3 4 5 10 10 10 10 10 10 10 5 7 9 9
8 15 13 3 1 2 6 6 5 3 4 1 4 9 16 20 21 22 21 20 19 19 18 16 14 12 10 9 7 6 6 6 5 5 3 3 6 6 9 10 9 10 10 10 9 6 9 9 10
18 12 6 4 7 8 9 7 7 1 7 6 6 9 12 16 19 19 18 18 17 17 16 15 14 13 11 9 7 6 6 6 6 4 4 5 5 7 8 9 9 9 10 11 9 7 10 10 9
11 14 4 3 4 7 7 5 4 3 6 8 2 6 11 15 17 17 16 16 16 16 15 14 13 13 11 9 7 7 6 7 5 4 4 4 5 7 7 8 7 7 8 9 8 9 10 11 12
7 7 9 5 6 5 6 5 2 5 3 5 3 6 9 12 16 17 13 15 15 14 12 12 13 12 11 9 8 7 8 6 5 4 4 5 4 5 7 8 7 8 8 8 9 9 9 11 12
Wind_Direction
325 99 123 59 230 340 205 207 310 138 155 192 148 167 128 46 95 122 131 78 99 74 56 61 67 81 80 80 80 80 78 68 59 62 74 76 77 78 65 46 17 355 261 160 250 271 264 292 310
109 150 69 91 185 220 200 211 183 162 132 132 102 108 77 83 66 112 117 70 84 76 53 49 72 80 83 80 80 79 78 73 72 67 56 55 52 47 48 41 22 356 343 331 317 301 295 281 284
138 52 248 89 122 206 228 179 145 131 139 151 115 53 86 100 134 104 104 97 83 63 53 44 71 73 78 78 76 76 74 69 64 61 59 58 56 52 48 45 39 35 27 4 333 319 309 290 282
110 90 86 215 223 224 223 159 151 141 110 82 127 106 98 21 130 112 110 91 83 69 63 55 62 76 78 76 75 73 71 70 69 65 62 60 58 55 47 44 41 38 32 28 20 6 341 310 293
38 76 118 152 243 262 244 171 158 148 131 137 147 138 99 58 99 99 92 91 100 93 79 75 70 79 80 78 75 74 75 74 71 65 62 59 57 53 49 45 42 38 35 28 24 18 13 0 330
82 91 160 213 227 250 276 176 165 139 144 138 108 136 112 117 107 101 103 93 89 92 87 85 77 76 76 77 75 73 72 72 70 66 61 58 54 50 46 42 39 36 33 28 23 18 13 9 9
118 112 214 206 221 246 205 170 181 157 152 154 140 141 111 128 116 115 107 97 91 87 87 85 86 80 80 79 79 76 73 72 69 65 62 58 53 48 43 39 35 32 29 25 20 15 9 3 2
114 120 164 234 223 211 147 163 140 169 161 124 151 175 181 155 135 123 112 103 88 83 88 88 85 87 87 84 78 75 74 70 66 62 57 54 49 43 38 34 29 27 23 19 16 11 7 359 354
145 186 193 222 194 169 161 156 138 19 146 74 24 174 126 134 140 131 122 109 104 82 71 75 77 79 84 86 80 76 71 64 59 54 48 46 40 32 29 28 23 20 15 11 7 3 358 354 349
187 193 214 213 211 215 178 181 157 160 164 164 119 102 135 141 157 152 148 136 119 99 76 66 73 78 85 81 74 71 65 61 56 51 47 45 40 33 26 22 18 14 9 3 358 354 350 351 341
171 236 205 248 230 200 187 171 159 164 198 203 194 160 155 152 161 150 140 126 116 107 91 74 78 72 76 74 72 66 63 61 55 47 42 41 38 29 25 18 14 8 5 1 353 350 349 339 334
275 252 235 279 259 181 180 145 164 187 209 247 163 161 158 162 161 151 140 128 125 109 95 87 81 82 77 82 76 76 71 63 55 46 38 35 31 26 22 18 11 8 1 353 350 343 335 329 324
229 266 273 273 277 211 144 175 169 207 352 131 142 159 165 161 154 140 137 129 127 117 109 95 95 90 84 80 80 74 69 63 60 53 43 39 37 30 20 17 11 4 355 352 344 339 333 325 320
310 293 289 287 205 173 161 143 181 180 148 144 156 163 165 165 157 141 147 141 138 130 119 114 98 91 90 86 81 79 72 66 60 53 42 39 34 25 19 14 9 2 353 346 338 334 328 323 319
282 297 298 242 208 193 138 157 216 158 167 159 167 166 167 169 160 161 159 153 146 138 134 123 114 105 100 94 88 81 73 66 57 51 43 38 34 24 17 12 5 357 346 339 336 332 328 321 318
280 240 272 321 179 175 197 226 192 166 170 176 173 175 175 171 168 168 164 157 151 143 141 133 123 116 106 102 93 85 73 67 60 54 47 40 34 25 18 11 4 353 347 343 341 338 331 326 319
233 257 244 292 202 145 207 230 186 176 182 181 183 182 177 171 177 175 172 162 157 151 142 135 135 129 120 109 100 88 77 68 60 51 43 35 33 23 15 10 1 351 346 345 340 335 331 321 319
233 228 226 241 200 207 197 232 163 191 193 192 188 184 183 183 183 177 173 165 159 152 146 146 147 145 138 122 110 95 83 74 64 54 45 37 32 21 13 6 359 354 348 350 345 337 335 324 324
236 230 245 261 272 238 234 245 234 191 207 204 197 192 190 187 176 175 172 164 158 154 152 153 152 158 162 157 159 140 111 99 70 55 46 40 31 19 12 6 358 356 353 347 347 341 337 334 338
237 255 262 277 261 249 266 263 262 187 208 204 197 198 193 179 177 176 176 173 174 164 160 157 159 164 174 154 134 129 156 108 75 52 46 36 24 16 10 6 3 358 351 353 352 345 341 333 350
231 236 250 248 283 257 269 265 239 210 221 213 213 206 194 188 179 181 182 180 176 172 170 166 159 144 138 133 132 131 120 118 107 44 38 30 21 16 11 9 7 1 359 355 351 343 343 330 337
243 224 243 251 258 263 210 281 231 205 207 206 206 197 193 190 188 182 183 182 182 177 166 162 149 150 147 163 164 148 117 124 94 70 35 28 29 20 15 9 6 8 3 358 346 345 344 342 333
246 207 212 231 241 271 242 273 237 200 210 211 210 202 196 192 187 185 185 182 179 167 167 157 155 152 154 139 125 110 114 126 136 113 54 43 30 20 13 11 10 11 4 356 342 349 354 342 330
203 200 189 179 223 253 228 220 262 208 211 214 213 206 200 191 188 182 179 173 170 166 162 161 158 153 145 136 120 139 154 139 112 60 43 28 7 7 19 11 11 8 4 350 350 354 353 351 343
192 190 223 225 203 250 180 210 253 264 210 205 205 210 202 189 182 176 172 172 167 168 166 163 161 155 153 138 151 161 129 95 76 59 43 23 6 17 13 8 6 2 360 354 359 358 353 0 352
190 193 200 217 215 265 190 235 241 5 358 256 250 221 186 184 182 178 173 172 166 167 166 165 165 159 158 164 163 141 104 96 85 68 53 36 28 27 12 7 7 0 360 1 0 0 3 1 356
181 214 198 227 354 276 231 269 242 277 232 232 229 174 181 181 180 177 173 170 167 167 168 166 166 161 166 172 154 124 119 112 94 81 69 55 43 27 16 12 10 1 9 8 355 8 7 7 7
213 170 185 189 203 230 228 263 246 267 262 208 214 195 173 175 175 174 172 167 165 165 165 165 167 163 167 164 148 132 133 107 97 95 79 70 55 38 28 18 14 9 17 14 7 11 8 11 14
210 224 160 191 234 233 250 235 214 254 292 290 234 189 173 171 173 167 165 161 157 160 163 162 160 162 164 158 139 148 127 109 115 106 92 79 69 48 38 31 20 17 23 20 20 19 15 17 15
266 237 172 200 192 240 275 228 197 281 256 236 238 179 183 177 170 163 152 153 154 154 155 152 163 165 163 146 156 142 129 125 118 105 103 95 85 68 51 41 36 27 30 25 25 24 21 22 21